sat.trackr.live / text

‹ back to catalog

STARLINK-36387

NORAD 67610 · 2026-018X

PAYLOAD ACTIVE UNKNOWN

§ Identity

Operator
Country
US
Launch date
2026-01-29
Launch site
AFWTR
Launch vehicle
Mass (kg)
RCS (m²)

Purposes: comms

External: N2YO · Heavens-Above · Gunter

§ Orbital elements

Epoch: 2026-05-25T03:54:31.293216Z

Period
91.42 min
Inclination
97.2833°
Eccentricity
0.0001248
Mean motion
15.75205013 rev/d
Perigee alt
343.2 km
Apogee alt
344.9 km
Semi-major
6,722.2 km
B*
1.1155e-3
RAAN
214.8690°
Arg perigee
44.7209°
Mean anomaly
315.4157°
Rev number
1,935

§ Raw data

STARLINK-363871 67610U 26018X   26145.16286219  .00169709  00000+0  11155-2 0  99962 67610  97.2833 214.8690 0001248  44.7209 315.4157 15.75205013 19358

JSON: /api/v1/satellites/67610 · /tle

For live sub-satellite position, see the globe view (requires WebGL).

§ Visibility from observer

Set your observer location to see the next 7 days of passes ≥ 10°. The values pass through the URL so the page stays shareable.

No JS? Fill the form by hand. The geolocation button needs JavaScript.